Starlink 11511

operational
NORAD ID: 62468 Int'l Des: 2024-254 Owner: SPXS Country: US Constellation: starlink
LEOCIRCULAR

Starlink 11511について

説明を読み込み中...

リアルタイム位置

3D地球を読み込み中...

次回通過

高度履歴

Altitude vs Time

uPlot chart will show altitude changes over time

軌道要素

1 62468U 24254G 25346.27938929 .00249138 00000-0 18939-2 0 9991
2 62468 42.9988 29.8803 0000582 271.0114 89.0687 15.70757408 55652
Epoch: Dec 12, 2025 • Age: 18 hours

現在のステータス

高度 355.5 km
速度 7.70 km/s
衛星直下点 23.86°N, 46.14°W
打ち上げ日 Dec 31, 2024
運用期間 0.9 years
タイプ internet

技術仕様

分類 Payload
質量 960.00 kg
乾燥質量 910.00 kg
総質量 960.00 kg
長さ 0.30 m
直径 4.10 m
スパン 29.00 m
形状 Box + pan
製造者 SPXS
バスタイプ Starlink V2MD
フェーズステータス In Orbit
所有者/国 SPXS/US

大規模コンステレーション

Loading constellations...